contact:dominique.lefevre@mio.osupytheas.fr, maurice.libes@osupytheas.fr, didier.mallarino@osupytheas.fr
Project:EMSO http://www.emso-fr.org/EMSO-France
Depth: 2436.0 m
Title:EMSO Ligure Ouest : Data MII capteur MICROCAT
DateTime_Computer,Latitude,Longitude,Temperature,Conductivity,Pressure,DateTime_Instrument
DateTime_Computer,Latitude,Longitude,degC,S m-1,dbar,DateTime_Instrument
2019-12-31T00:01:22Z,42.805,6.029,13.2977,4.59999,2470.053,2019-12-31T02:01:53Z
2019-12-31T00:04:25Z,42.805,6.029,13.2986,4.60023,2470.053,2019-12-31T02:04:57Z
2019-12-31T00:07:29Z,42.805,6.029,13.2995,4.59981,2470.04,2019-12-31T02:08:00Z
2019-12-31T00:10:32Z,42.805,6.029,13.2976,4.60021,2470.017,2019-12-31T02:11:03Z
2019-12-31T00:13:35Z,42.805,6.029,13.2996,4.60034,2470.04,2019-12-31T02:14:06Z
2019-12-31T00:16:38Z,42.805,6.029,13.2987,4.60010,2470.04,2019-12-31T02:17:10Z
2019-12-31T00:19:41Z,42.805,6.029,13.2970,4.59989,2470.03,2019-12-31T02:20:13Z
2019-12-31T00:22:45Z,42.805,6.029,13.2977,4.60029,2470.053,2019-12-31T02:23:16Z
2019-12-31T00:25:48Z,42.805,6.029,13.3005,4.60026,2470.03,2019-12-31T02:26:19Z
2019-12-31T00:28:51Z,42.805,6.029,13.2975,4.59998,2470.03,2019-12-31T02:29:23Z
2019-12-31T00:31:54Z,42.805,6.029,13.2974,4.59993,2470.017,2019-12-31T02:32:26Z
2019-12-31T00:34:58Z,42.805,6.029,13.2971,4.59998,2470.04,2019-12-31T02:35:29Z
2019-12-31T00:38:01Z,42.805,6.029,13.2981,4.60003,2470.053,2019-12-31T02:38:32Z
2019-12-31T00:41:04Z,42.805,6.029,13.2978,4.60015,2470.03,2019-12-31T02:41:35Z
2019-12-31T00:44:07Z,42.805,6.029,13.2979,4.60014,2470.04,2019-12-31T02:44:39Z
2019-12-31T00:47:11Z,42.805,6.029,13.2982,4.60009,2470.017,2019-12-31T02:47:42Z
2019-12-31T00:50:14Z,42.805,6.029,13.2969,4.60015,2470.007,2019-12-31T02:50:45Z
2019-12-31T00:53:17Z,42.805,6.029,13.2976,4.59996,2470.04,2019-12-31T02:53:48Z
2019-12-31T00:56:20Z,42.805,6.029,13.2992,4.60017,2470.017,2019-12-31T02:56:51Z
2019-12-31T00:59:23Z,42.805,6.029,13.2971,4.60021,2470.053,2019-12-31T02:59:55Z
2019-12-31T01:02:27Z,42.805,6.029,13.2985,4.60009,2470.03,2019-12-31T03:02:58Z
2019-12-31T01:05:30Z,42.805,6.029,13.2993,4.60037,2470.017,2019-12-31T03:06:01Z
2019-12-31T01:08:33Z,42.805,6.029,13.2970,4.60009,2470.017,2019-12-31T03:09:04Z
2019-12-31T01:11:37Z,42.805,6.029,13.2971,4.60039,2470.03,2019-12-31T03:12:08Z
2019-12-31T01:14:40Z,42.805,6.029,13.2987,4.60007,2470.007,2019-12-31T03:15:11Z
2019-12-31T01:17:43Z,42.805,6.029,13.2967,4.60006,2470.04,2019-12-31T03:18:14Z
2019-12-31T01:20:46Z,42.805,6.029,13.2977,4.60019,2470.053,2019-12-31T03:21:18Z
2019-12-31T01:23:49Z,42.805,6.029,13.2974,4.60006,2470.04,2019-12-31T03:24:21Z
2019-12-31T01:26:53Z,42.805,6.029,13.2974,4.59994,2470.017,2019-12-31T03:27:24Z
2019-12-31T01:29:56Z,42.805,6.029,13.2974,4.60007,2470.03,2019-12-31T03:30:27Z
2019-12-31T01:32:59Z,42.805,6.029,13.2969,4.59987,2469.993,2019-12-31T03:33:30Z
2019-12-31T01:36:02Z,42.805,6.029,13.2973,4.59986,2469.984,2019-12-31T03:36:34Z
2019-12-31T01:39:06Z,42.805,6.029,13.2968,4.59991,2470.026,2019-12-31T03:39:37Z
2019-12-31T01:42:09Z,42.805,6.029,13.2975,4.59990,2470.053,2019-12-31T03:42:40Z
2019-12-31T01:45:12Z,42.805,6.029,13.2968,4.59996,2470.017,2019-12-31T03:45:44Z
2019-12-31T01:48:16Z,42.805,6.029,13.2989,4.59996,2470.03,2019-12-31T03:48:47Z
2019-12-31T01:51:19Z,42.805,6.029,13.2975,4.60029,2469.984,2019-12-31T03:51:50Z
2019-12-31T01:54:22Z,42.805,6.029,13.2976,4.60003,2469.993,2019-12-31T03:54:53Z
2019-12-31T01:57:25Z,42.805,6.029,13.2974,4.60010,2470.053,2019-12-31T03:57:57Z
2019-12-31T02:00:28Z,42.805,6.029,13.2970,4.59998,2469.993,2019-12-31T04:01:00Z
2019-12-31T02:03:32Z,42.805,6.029,13.2975,4.60019,2469.993,2019-12-31T04:04:03Z
2019-12-31T02:06:35Z,42.805,6.029,13.2966,4.59997,2470.007,2019-12-31T04:07:06Z
2019-12-31T02:09:38Z,42.805,6.029,13.2980,4.59996,2469.993,2019-12-31T04:10:09Z
2019-12-31T02:12:41Z,42.805,6.029,13.2982,4.60046,2470.04,2019-12-31T04:13:13Z
2019-12-31T02:15:45Z,42.805,6.029,13.2971,4.60001,2470.017,2019-12-31T04:16:16Z
2019-12-31T02:18:48Z,42.805,6.029,13.2976,4.60032,2469.979,2019-12-31T04:19:19Z
2019-12-31T02:21:51Z,42.805,6.029,13.2976,4.60021,2470.03,2019-12-31T04:22:22Z
2019-12-31T02:24:54Z,42.805,6.029,13.2974,4.60021,2469.97,2019-12-31T04:25:25Z
2019-12-31T02:27:58Z,42.805,6.029,13.2970,4.60043,2469.97,2019-12-31T04:28:29Z
2019-12-31T02:31:01Z,42.805,6.029,13.2992,4.60035,2470.017,2019-12-31T04:31:32Z
2019-12-31T02:34:04Z,42.805,6.029,13.2991,4.59993,2469.993,2019-12-31T04:34:35Z
2019-12-31T02:37:07Z,42.805,6.029,13.3006,4.60023,2470.017,2019-12-31T04:37:39Z
2019-12-31T02:40:11Z,42.805,6.029,13.2973,4.60021,2469.993,2019-12-31T04:40:42Z
2019-12-31T02:43:14Z,42.805,6.029,13.2979,4.60006,2470.017,2019-12-31T04:43:45Z
2019-12-31T02:46:17Z,42.805,6.029,13.2993,4.60051,2470.007,2019-12-31T04:46:48Z
2019-12-31T02:49:20Z,42.805,6.029,13.2988,4.60016,2470.007,2019-12-31T04:49:51Z
2019-12-31T02:52:23Z,42.805,6.029,13.2987,4.59990,2469.993,2019-12-31T04:52:55Z
2019-12-31T02:55:27Z,42.805,6.029,13.2973,4.60005,2469.993,2019-12-31T04:55:58Z
2019-12-31T02:58:30Z,42.805,6.029,13.2979,4.59999,2470.04,2019-12-31T04:59:01Z
2019-12-31T03:01:33Z,42.805,6.029,13.2978,4.59998,2470.007,2019-12-31T05:02:04Z
2019-12-31T03:04:36Z,42.805,6.029,13.2982,4.60017,2470.017,2019-12-31T05:05:08Z
2019-12-31T03:07:40Z,42.805,6.029,13.2983,4.60003,2470.03,2019-12-31T05:08:11Z
2019-12-31T03:10:43Z,42.805,6.029,13.2983,4.60012,2470.03,2019-12-31T05:11:14Z
2019-12-31T03:13:46Z,42.805,6.029,13.2976,4.60013,2470.007,2019-12-31T05:14:17Z
2019-12-31T03:16:49Z,42.805,6.029,13.2989,4.60026,2470.017,2019-12-31T05:17:20Z
2019-12-31T03:19:52Z,42.805,6.029,13.2973,4.60000,2470.03,2019-12-31T05:20:24Z
2019-12-31T03:22:56Z,42.805,6.029,13.2975,4.60008,2470.007,2019-12-31T05:23:27Z
2019-12-31T03:25:59Z,42.805,6.029,13.2971,4.59985,2469.993,2019-12-31T05:26:30Z
2019-12-31T03:29:02Z,42.805,6.029,13.2976,4.60001,2469.993,2019-12-31T05:29:33Z
2019-12-31T03:32:05Z,42.805,6.029,13.2976,4.60000,2469.96,2019-12-31T05:32:37Z
2019-12-31T03:35:09Z,42.805,6.029,13.2983,4.60015,2470.007,2019-12-31T05:35:40Z
2019-12-31T03:38:12Z,42.805,6.029,13.2982,4.60007,2470.007,2019-12-31T05:38:43Z
2019-12-31T03:41:15Z,42.805,6.029,13.2984,4.60017,2470.04,2019-12-31T05:41:46Z
2019-12-31T03:44:18Z,42.805,6.029,13.2982,4.60014,2469.97,2019-12-31T05:44:49Z
2019-12-31T03:47:21Z,42.805,6.029,13.2977,4.59996,2470.03,2019-12-31T05:47:53Z
2019-12-31T03:50:25Z,42.805,6.029,13.2979,4.60014,2470.007,2019-12-31T05:50:56Z
2019-12-31T03:53:28Z,42.805,6.029,13.2982,4.60006,2470.017,2019-12-31T05:53:59Z
2019-12-31T03:56:31Z,42.805,6.029,13.2977,4.60011,2469.984,2019-12-31T05:57:02Z
2019-12-31T03:59:34Z,42.805,6.029,13.2974,4.60020,2469.97,2019-12-31T06:00:06Z
2019-12-31T04:02:37Z,42.805,6.029,13.2985,4.59999,2469.993,2019-12-31T06:03:09Z
2019-12-31T04:05:41Z,42.805,6.029,13.2974,4.60003,2470.03,2019-12-31T06:06:12Z
2019-12-31T04:08:44Z,42.805,6.029,13.2979,4.60007,2469.984,2019-12-31T06:09:15Z
2019-12-31T04:11:47Z,42.805,6.029,13.2973,4.59983,2469.97,2019-12-31T06:12:19Z
2019-12-31T04:14:51Z,42.805,6.029,13.2977,4.60004,2469.993,2019-12-31T06:15:22Z
2019-12-31T04:17:54Z,42.805,6.029,13.2979,4.60038,2469.993,2019-12-31T06:18:25Z
2019-12-31T04:20:57Z,42.805,6.029,13.2981,4.60007,2470.021,2019-12-31T06:21:28Z
2019-12-31T04:24:00Z,42.805,6.029,13.2976,4.60015,2469.993,2019-12-31T06:24:31Z
2019-12-31T04:27:03Z,42.805,6.029,13.2988,4.60003,2470.017,2019-12-31T06:27:35Z
2019-12-31T04:30:07Z,42.805,6.029,13.2967,4.59988,2469.993,2019-12-31T06:30:38Z
2019-12-31T04:33:10Z,42.805,6.029,13.2979,4.60013,2470.007,2019-12-31T06:33:41Z
2019-12-31T04:36:13Z,42.805,6.029,13.2978,4.60001,2470.017,2019-12-31T06:36:45Z
2019-12-31T04:39:16Z,42.805,6.029,13.2982,4.60017,2470.007,2019-12-31T06:39:48Z
2019-12-31T04:42:20Z,42.805,6.029,13.2981,4.60015,2470.017,2019-12-31T06:42:51Z
2019-12-31T04:45:23Z,42.805,6.029,13.2979,4.60015,2470.007,2019-12-31T06:45:54Z
2019-12-31T04:48:26Z,42.805,6.029,13.2977,4.60014,2470.04,2019-12-31T06:48:57Z
2019-12-31T04:51:29Z,42.805,6.029,13.2981,4.60011,2470.03,2019-12-31T06:52:01Z
2019-12-31T04:54:32Z,42.805,6.029,13.2975,4.60011,2470.007,2019-12-31T06:55:04Z
2019-12-31T04:57:36Z,42.805,6.029,13.2976,4.60008,2470.017,2019-12-31T06:58:07Z
2019-12-31T05:00:39Z,42.805,6.029,13.2987,4.60021,2469.993,2019-12-31T07:01:10Z
2019-12-31T05:03:42Z,42.805,6.029,13.2972,4.59996,2470.03,2019-12-31T07:04:13Z
2019-12-31T05:06:45Z,42.805,6.029,13.2971,4.60003,2470.03,2019-12-31T07:07:17Z
2019-12-31T05:09:49Z,42.805,6.029,13.2978,4.59993,2469.984,2019-12-31T07:10:20Z
2019-12-31T05:12:52Z,42.805,6.029,13.2980,4.60004,2470.017,2019-12-31T07:13:23Z
2019-12-31T05:15:55Z,42.805,6.029,13.2978,4.60011,2470.03,2019-12-31T07:16:26Z
2019-12-31T05:18:58Z,42.805,6.029,13.2974,4.60031,2470.017,2019-12-31T07:19:29Z
2019-12-31T05:22:01Z,42.805,6.029,13.2977,4.60023,2470.007,2019-12-31T07:22:33Z
2019-12-31T05:25:05Z,42.805,6.029,13.2970,4.59996,2470.04,2019-12-31T07:25:36Z
2019-12-31T05:28:08Z,42.805,6.029,13.2982,4.60009,2470.007,2019-12-31T07:28:39Z
2019-12-31T05:31:11Z,42.805,6.029,13.2991,4.60025,2470.017,2019-12-31T07:31:42Z
2019-12-31T05:34:14Z,42.805,6.029,13.2977,4.60017,2470.03,2019-12-31T07:34:46Z
2019-12-31T05:37:18Z,42.805,6.029,13.2971,4.60016,2470.04,2019-12-31T07:37:49Z
2019-12-31T05:40:21Z,42.805,6.029,13.2971,4.60006,2469.993,2019-12-31T07:40:52Z
2019-12-31T05:43:24Z,42.805,6.029,13.2982,4.60018,2470.017,2019-12-31T07:43:55Z
2019-12-31T05:46:27Z,42.805,6.029,13.2990,4.60031,2470.04,2019-12-31T07:46:59Z
2019-12-31T05:49:30Z,42.805,6.029,13.2973,4.60029,2470.017,2019-12-31T07:50:02Z
2019-12-31T05:52:34Z,42.805,6.029,13.2971,4.59999,2470.053,2019-12-31T07:53:05Z
2019-12-31T05:55:37Z,42.805,6.029,13.2982,4.60022,2470.053,2019-12-31T07:56:08Z
2019-12-31T05:58:40Z,42.805,6.029,13.2980,4.60009,2469.993,2019-12-31T07:59:11Z
2019-12-31T06:01:43Z,42.805,6.029,13.2970,4.59998,2470.053,2019-12-31T08:02:14Z
2019-12-31T06:04:46Z,42.805,6.029,13.2977,4.60001,2470.007,2019-12-31T08:05:18Z
2019-12-31T06:07:50Z,42.805,6.029,13.2977,4.60010,2470.03,2019-12-31T08:08:21Z
2019-12-31T06:10:53Z,42.805,6.029,13.2975,4.59991,2470.04,2019-12-31T08:11:24Z
2019-12-31T06:13:56Z,42.805,6.029,13.2974,4.60003,2470.053,2019-12-31T08:14:27Z
2019-12-31T06:16:59Z,42.805,6.029,13.2976,4.60006,2470.063,2019-12-31T08:17:30Z
2019-12-31T06:20:02Z,42.805,6.029,13.2973,4.59998,2470.053,2019-12-31T08:20:34Z
2019-12-31T06:23:06Z,42.805,6.029,13.2983,4.59991,2470.087,2019-12-31T08:23:37Z
2019-12-31T06:26:09Z,42.805,6.029,13.2979,4.60017,2470.04,2019-12-31T08:26:40Z
2019-12-31T06:29:12Z,42.805,6.029,13.2976,4.59991,2470.077,2019-12-31T08:29:43Z
2019-12-31T06:32:15Z,42.805,6.029,13.2974,4.59995,2470.077,2019-12-31T08:32:47Z
2019-12-31T06:35:18Z,42.805,6.029,13.2979,4.60009,2470.1,2019-12-31T08:35:50Z
2019-12-31T06:38:22Z,42.805,6.029,13.2969,4.60014,2470.1,2019-12-31T08:38:53Z
2019-12-31T06:41:25Z,42.805,6.029,13.2968,4.59991,2470.04,2019-12-31T08:41:56Z
2019-12-31T06:44:28Z,42.805,6.029,13.2985,4.59994,2470.053,2019-12-31T08:45:00Z
2019-12-31T06:47:31Z,42.805,6.029,13.2981,4.60008,2470.124,2019-12-31T08:48:03Z
2019-12-31T06:50:35Z,42.805,6.029,13.2978,4.59996,2470.063,2019-12-31T08:51:06Z
2019-12-31T06:53:38Z,42.805,6.029,13.2973,4.59991,2470.087,2019-12-31T08:54:09Z
2019-12-31T06:56:41Z,42.805,6.029,13.2969,4.59996,2470.063,2019-12-31T08:57:12Z
2019-12-31T06:59:44Z,42.805,6.029,13.2978,4.59979,2470.049,2019-12-31T09:00:15Z
2019-12-31T07:02:47Z,42.805,6.029,13.2973,4.59991,2470.087,2019-12-31T09:03:19Z
2019-12-31T07:05:51Z,42.805,6.029,13.2974,4.59996,2470.063,2019-12-31T09:06:22Z
2019-12-31T07:08:54Z,42.805,6.029,13.2974,4.60008,2470.124,2019-12-31T09:09:25Z
2019-12-31T07:11:57Z,42.805,6.029,13.2981,4.60008,2470.087,2019-12-31T09:12:28Z
2019-12-31T07:15:00Z,42.805,6.029,13.2976,4.60001,2470.063,2019-12-31T09:15:32Z
2019-12-31T07:18:03Z,42.805,6.029,13.2972,4.60006,2470.087,2019-12-31T09:18:35Z
2019-12-31T07:21:07Z,42.805,6.029,13.2972,4.60007,2470.11,2019-12-31T09:21:38Z
2019-12-31T07:24:10Z,42.805,6.029,13.2971,4.60002,2470.1,2019-12-31T09:24:41Z
2019-12-31T07:27:13Z,42.805,6.029,13.2980,4.60009,2470.11,2019-12-31T09:27:44Z
2019-12-31T07:30:16Z,42.805,6.029,13.2971,4.59996,2470.124,2019-12-31T09:30:48Z
2019-12-31T07:33:20Z,42.805,6.029,13.2969,4.59981,2470.124,2019-12-31T09:33:51Z
2019-12-31T07:36:23Z,42.805,6.029,13.2976,4.60007,2470.124,2019-12-31T09:36:54Z
2019-12-31T07:39:26Z,42.805,6.029,13.2976,4.59998,2470.124,2019-12-31T09:39:57Z
2019-12-31T07:42:29Z,42.805,6.029,13.2974,4.59997,2470.124,2019-12-31T09:43:00Z
2019-12-31T07:45:32Z,42.805,6.029,13.2974,4.59996,2470.147,2019-12-31T09:46:04Z
2019-12-31T07:48:36Z,42.805,6.029,13.2976,4.59999,2470.133,2019-12-31T09:49:07Z
2019-12-31T07:51:39Z,42.805,6.029,13.2969,4.59988,2470.1,2019-12-31T09:52:10Z
2019-12-31T07:54:42Z,42.805,6.029,13.2975,4.59987,2470.11,2019-12-31T09:55:13Z
2019-12-31T07:57:45Z,42.805,6.029,13.2983,4.59988,2470.133,2019-12-31T09:58:17Z
2019-12-31T08:00:48Z,42.805,6.029,13.2971,4.59985,2470.18,2019-12-31T10:01:20Z
2019-12-31T08:03:52Z,42.805,6.029,13.2970,4.59989,2470.147,2019-12-31T10:04:23Z
2019-12-31T08:06:55Z,42.805,6.029,13.2967,4.59997,2470.147,2019-12-31T10:07:26Z
2019-12-31T08:09:58Z,42.805,6.029,13.2968,4.59985,2470.147,2019-12-31T10:10:29Z
2019-12-31T08:13:01Z,42.805,6.029,13.2976,4.59986,2470.133,2019-12-31T10:13:33Z
2019-12-31T08:16:04Z,42.805,6.029,13.2967,4.59987,2470.133,2019-12-31T10:16:36Z
2019-12-31T08:19:08Z,42.805,6.029,13.2970,4.59988,2470.156,2019-12-31T10:19:39Z
2019-12-31T08:22:11Z,42.805,6.029,13.2971,4.59976,2470.18,2019-12-31T10:22:42Z
2019-12-31T08:25:14Z,42.805,6.029,13.2972,4.59992,2470.18,2019-12-31T10:25:45Z
2019-12-31T08:28:17Z,42.805,6.029,13.2969,4.59984,2470.18,2019-12-31T10:28:49Z
2019-12-31T08:31:21Z,42.805,6.029,13.2974,4.59978,2470.18,2019-12-31T10:31:52Z
2019-12-31T08:34:24Z,42.805,6.029,13.2971,4.59985,2470.194,2019-12-31T10:34:55Z
2019-12-31T08:37:27Z,42.805,6.029,13.2967,4.59984,2470.217,2019-12-31T10:37:58Z
2019-12-31T08:40:30Z,42.805,6.029,13.2967,4.59982,2470.194,2019-12-31T10:41:02Z
2019-12-31T08:43:33Z,42.805,6.029,13.2971,4.59982,2470.18,2019-12-31T10:44:05Z
2019-12-31T08:46:37Z,42.805,6.029,13.2968,4.59996,2470.194,2019-12-31T10:47:08Z
2019-12-31T08:49:40Z,42.805,6.029,13.2967,4.59996,2470.203,2019-12-31T10:50:11Z
2019-12-31T08:52:43Z,42.805,6.029,13.2970,4.59986,2470.217,2019-12-31T10:53:14Z
2019-12-31T08:55:46Z,42.805,6.029,13.2973,4.59986,2470.18,2019-12-31T10:56:18Z
2019-12-31T08:58:49Z,42.805,6.029,13.2967,4.59986,2470.203,2019-12-31T10:59:21Z
2019-12-31T09:01:53Z,42.805,6.029,13.2968,4.59975,2470.217,2019-12-31T11:02:24Z
2019-12-31T09:04:56Z,42.805,6.029,13.2964,4.59978,2470.203,2019-12-31T11:05:27Z
2019-12-31T09:07:59Z,42.805,6.029,13.2974,4.59983,2470.227,2019-12-31T11:08:30Z
2019-12-31T09:11:02Z,42.805,6.029,13.2973,4.59983,2470.25,2019-12-31T11:11:34Z
2019-12-31T09:14:06Z,42.805,6.029,13.2968,4.59972,2470.25,2019-12-31T11:14:37Z
2019-12-31T09:17:09Z,42.805,6.029,13.2965,4.59983,2470.227,2019-12-31T11:17:40Z
2019-12-31T09:20:12Z,42.805,6.029,13.2968,4.59989,2470.25,2019-12-31T11:20:43Z
2019-12-31T09:23:15Z,42.805,6.029,13.2967,4.59988,2470.264,2019-12-31T11:23:46Z
2019-12-31T09:26:18Z,42.805,6.029,13.2974,4.59995,2470.24,2019-12-31T11:26:50Z
2019-12-31T09:29:22Z,42.805,6.029,13.2965,4.59981,2470.227,2019-12-31T11:29:53Z
2019-12-31T09:32:25Z,42.805,6.029,13.2974,4.59985,2470.264,2019-12-31T11:32:56Z
2019-12-31T09:35:28Z,42.805,6.029,13.2974,4.59991,2470.25,2019-12-31T11:35:59Z
2019-12-31T09:38:31Z,42.805,6.029,13.2970,4.59983,2470.203,2019-12-31T11:39:03Z
2019-12-31T09:41:35Z,42.805,6.029,13.2978,4.59988,2470.264,2019-12-31T11:42:06Z
2019-12-31T09:44:38Z,42.805,6.029,13.2972,4.59983,2470.287,2019-12-31T11:45:09Z
2019-12-31T09:47:41Z,42.805,6.029,13.2974,4.59980,2470.203,2019-12-31T11:48:12Z
2019-12-31T09:50:44Z,42.805,6.029,13.2968,4.59981,2470.25,2019-12-31T11:51:15Z
2019-12-31T09:53:47Z,42.805,6.029,13.2970,4.59991,2470.24,2019-12-31T11:54:19Z
2019-12-31T09:56:51Z,42.805,6.029,13.2967,4.59968,2470.203,2019-12-31T11:57:22Z
2019-12-31T09:59:54Z,42.805,6.029,13.2974,4.59991,2470.227,2019-12-31T12:00:25Z
2019-12-31T10:02:57Z,42.805,6.029,13.2972,4.59983,2470.25,2019-12-31T12:03:28Z
2019-12-31T10:06:00Z,42.805,6.029,13.2971,4.59978,2470.227,2019-12-31T12:06:32Z
2019-12-31T10:09:03Z,42.805,6.029,13.2968,4.59981,2470.217,2019-12-31T12:09:35Z
2019-12-31T10:12:07Z,42.805,6.029,13.2969,4.59978,2470.227,2019-12-31T12:12:38Z
2019-12-31T10:15:10Z,42.805,6.029,13.2969,4.59985,2470.25,2019-12-31T12:15:41Z
2019-12-31T10:18:13Z,42.805,6.029,13.2976,4.59981,2470.25,2019-12-31T12:18:44Z
2019-12-31T10:21:16Z,42.805,6.029,13.2972,4.59982,2470.25,2019-12-31T12:21:48Z
2019-12-31T10:24:20Z,42.805,6.029,13.2968,4.59987,2470.227,2019-12-31T12:24:51Z
2019-12-31T10:27:23Z,42.805,6.029,13.2970,4.59978,2470.227,2019-12-31T12:27:54Z
2019-12-31T10:30:26Z,42.805,6.029,13.2974,4.59983,2470.25,2019-12-31T12:30:57Z
2019-12-31T10:33:29Z,42.805,6.029,13.2970,4.59979,2470.227,2019-12-31T12:34:01Z
2019-12-31T10:36:32Z,42.805,6.029,13.2968,4.59973,2470.227,2019-12-31T12:37:04Z
2019-12-31T10:39:36Z,42.805,6.029,13.2965,4.59976,2470.25,2019-12-31T12:40:07Z
2019-12-31T10:42:39Z,42.805,6.029,13.2966,4.59991,2470.203,2019-12-31T12:43:10Z
2019-12-31T10:45:42Z,42.805,6.029,13.2970,4.59988,2470.227,2019-12-31T12:46:13Z
2019-12-31T10:48:45Z,42.805,6.029,13.2974,4.59996,2470.25,2019-12-31T12:49:17Z
2019-12-31T10:51:49Z,42.805,6.029,13.2971,4.59980,2470.227,2019-12-31T12:52:20Z
2019-12-31T10:54:52Z,42.805,6.029,13.2975,4.59988,2470.227,2019-12-31T12:55:23Z
2019-12-31T10:57:55Z,42.805,6.029,13.2979,4.59986,2470.227,2019-12-31T12:58:26Z
2019-12-31T11:00:58Z,42.805,6.029,13.2967,4.59986,2470.227,2019-12-31T13:01:29Z
2019-12-31T11:04:01Z,42.805,6.029,13.2979,4.59991,2470.264,2019-12-31T13:04:33Z
2019-12-31T11:07:05Z,42.805,6.029,13.2973,4.59991,2470.217,2019-12-31T13:07:36Z
2019-12-31T11:10:08Z,42.805,6.029,13.2976,4.59986,2470.264,2019-12-31T13:10:39Z
2019-12-31T11:13:11Z,42.805,6.029,13.2974,4.59987,2470.227,2019-12-31T13:13:42Z
2019-12-31T11:16:14Z,42.805,6.029,13.2977,4.59996,2470.264,2019-12-31T13:16:45Z
2019-12-31T11:19:17Z,42.805,6.029,13.2980,4.59991,2470.227,2019-12-31T13:19:49Z
2019-12-31T11:22:21Z,42.805,6.029,13.2979,4.59986,2470.217,2019-12-31T13:22:52Z
2019-12-31T11:25:24Z,42.805,6.029,13.2976,4.59984,2470.203,2019-12-31T13:25:56Z
2019-12-31T11:28:27Z,42.805,6.029,13.2983,4.59988,2470.227,2019-12-31T13:28:59Z
2019-12-31T11:31:31Z,42.805,6.029,13.2978,4.59986,2470.203,2019-12-31T13:32:02Z
2019-12-31T11:34:34Z,42.805,6.029,13.2977,4.59986,2470.227,2019-12-31T13:35:05Z
2019-12-31T11:37:37Z,42.805,6.029,13.2979,4.59985,2470.24,2019-12-31T13:38:08Z
2019-12-31T11:40:40Z,42.805,6.029,13.2983,4.59991,2470.217,2019-12-31T13:41:12Z
2019-12-31T11:43:44Z,42.805,6.029,13.2982,4.59992,2470.227,2019-12-31T13:44:15Z
2019-12-31T11:46:47Z,42.805,6.029,13.2986,4.59992,2470.264,2019-12-31T13:47:18Z
2019-12-31T11:49:50Z,42.805,6.029,13.2982,4.59994,2470.227,2019-12-31T13:50:21Z
2019-12-31T11:52:53Z,42.805,6.029,13.2978,4.60001,2470.18,2019-12-31T13:53:25Z
2019-12-31T11:55:56Z,42.805,6.029,13.2983,4.60000,2470.24,2019-12-31T13:56:28Z
2019-12-31T11:59:00Z,42.805,6.029,13.2986,4.60001,2470.227,2019-12-31T13:59:31Z
2019-12-31T12:02:03Z,42.805,6.029,13.2986,4.60007,2470.24,2019-12-31T14:02:34Z
2019-12-31T12:05:06Z,42.805,6.029,13.2994,4.60006,2470.18,2019-12-31T14:05:37Z
2019-12-31T12:08:09Z,42.805,6.029,13.2982,4.60004,2470.18,2019-12-31T14:08:41Z
2019-12-31T12:11:12Z,42.805,6.029,13.2979,4.59991,2470.203,2019-12-31T14:11:44Z
2019-12-31T12:14:16Z,42.805,6.029,13.2986,4.59988,2470.203,2019-12-31T14:14:47Z
2019-12-31T12:17:19Z,42.805,6.029,13.2982,4.59991,2470.203,2019-12-31T14:17:50Z
2019-12-31T12:20:22Z,42.805,6.029,13.2982,4.59994,2470.203,2019-12-31T14:20:54Z
2019-12-31T12:23:25Z,42.805,6.029,13.2981,4.59999,2470.203,2019-12-31T14:23:57Z
2019-12-31T12:26:29Z,42.805,6.029,13.2982,4.60006,2470.217,2019-12-31T14:27:00Z
2019-12-31T12:29:32Z,42.805,6.029,13.2983,4.60008,2470.217,2019-12-31T14:30:03Z
2019-12-31T12:32:35Z,42.805,6.029,13.2986,4.59995,2470.203,2019-12-31T14:33:06Z
2019-12-31T12:35:38Z,42.805,6.029,13.2986,4.59991,2470.217,2019-12-31T14:36:10Z
2019-12-31T12:38:41Z,42.805,6.029,13.2979,4.59987,2470.194,2019-12-31T14:39:13Z
2019-12-31T12:41:45Z,42.805,6.029,13.2983,4.59986,2470.217,2019-12-31T14:42:16Z
2019-12-31T12:44:48Z,42.805,6.029,13.2986,4.59992,2470.203,2019-12-31T14:45:19Z
2019-12-31T12:47:51Z,42.805,6.029,13.2986,4.60002,2470.203,2019-12-31T14:48:23Z
2019-12-31T12:50:54Z,42.805,6.029,13.2983,4.59997,2470.18,2019-12-31T14:51:26Z
2019-12-31T12:53:58Z,42.805,6.029,13.2983,4.59991,2470.194,2019-12-31T14:54:29Z
2019-12-31T12:57:01Z,42.805,6.029,13.2985,4.59987,2470.194,2019-12-31T14:57:32Z
2019-12-31T13:00:04Z,42.805,6.029,13.2983,4.59991,2470.156,2019-12-31T15:00:35Z
2019-12-31T13:03:07Z,42.805,6.029,13.2980,4.59999,2470.217,2019-12-31T15:03:39Z
2019-12-31T13:06:10Z,42.805,6.029,13.2981,4.60001,2470.18,2019-12-31T15:06:42Z
2019-12-31T13:09:14Z,42.805,6.029,13.2980,4.59986,2470.194,2019-12-31T15:09:45Z
2019-12-31T13:12:17Z,42.805,6.029,13.2978,4.59989,2470.18,2019-12-31T15:12:48Z
2019-12-31T13:15:20Z,42.805,6.029,13.2991,4.59988,2470.133,2019-12-31T15:15:52Z
2019-12-31T13:18:23Z,42.805,6.029,13.2988,4.59994,2470.18,2019-12-31T15:18:55Z
2019-12-31T13:21:27Z,42.805,6.029,13.2982,4.59992,2470.194,2019-12-31T15:21:58Z
2019-12-31T13:24:30Z,42.805,6.029,13.2983,4.59992,2470.194,2019-12-31T15:25:01Z
2019-12-31T13:27:33Z,42.805,6.029,13.2987,4.59994,2470.194,2019-12-31T15:28:04Z
2019-12-31T13:30:36Z,42.805,6.029,13.2987,4.60000,2470.156,2019-12-31T15:31:07Z
2019-12-31T13:33:39Z,42.805,6.029,13.2987,4.59997,2470.147,2019-12-31T15:34:11Z
2019-12-31T13:36:43Z,42.805,6.029,13.2986,4.60004,2470.147,2019-12-31T15:37:14Z
2019-12-31T13:39:46Z,42.805,6.029,13.2994,4.60004,2470.194,2019-12-31T15:40:17Z
2019-12-31T13:42:49Z,42.805,6.029,13.2991,4.60003,2470.171,2019-12-31T15:43:21Z
2019-12-31T13:45:53Z,42.805,6.029,13.2986,4.59999,2470.156,2019-12-31T15:46:24Z
2019-12-31T13:48:56Z,42.805,6.029,13.2989,4.59994,2470.171,2019-12-31T15:49:27Z
2019-12-31T13:52:00Z,42.805,6.029,13.2991,4.59994,2470.194,2019-12-31T15:52:31Z
2019-12-31T13:55:03Z,42.805,6.029,13.2986,4.60003,2470.156,2019-12-31T15:55:34Z
2019-12-31T13:58:06Z,42.805,6.029,13.2986,4.60006,2470.18,2019-12-31T15:58:37Z
2019-12-31T14:01:09Z,42.805,6.029,13.2990,4.60006,2470.147,2019-12-31T16:01:40Z
2019-12-31T14:04:12Z,42.805,6.029,13.2991,4.59999,2470.156,2019-12-31T16:04:44Z
2019-12-31T14:07:16Z,42.805,6.029,13.2988,4.59989,2470.147,2019-12-31T16:07:47Z
2019-12-31T14:10:19Z,42.805,6.029,13.2986,4.59996,2470.133,2019-12-31T16:10:50Z
2019-12-31T14:13:22Z,42.805,6.029,13.2984,4.59996,2470.147,2019-12-31T16:13:53Z
2019-12-31T14:16:25Z,42.805,6.029,13.2985,4.59993,2470.147,2019-12-31T16:16:57Z
2019-12-31T14:19:28Z,42.805,6.029,13.2997,4.60010,2470.133,2019-12-31T16:20:00Z
2019-12-31T14:22:32Z,42.805,6.029,13.2985,4.59997,2470.133,2019-12-31T16:23:03Z
2019-12-31T14:25:35Z,42.805,6.029,13.2989,4.59990,2470.11,2019-12-31T16:26:06Z
2019-12-31T14:28:38Z,42.805,6.029,13.2986,4.60011,2470.156,2019-12-31T16:29:09Z
2019-12-31T14:31:41Z,42.805,6.029,13.2983,4.59996,2470.156,2019-12-31T16:32:13Z
2019-12-31T14:34:45Z,42.805,6.029,13.2986,4.59994,2470.133,2019-12-31T16:35:16Z
2019-12-31T14:37:48Z,42.805,6.029,13.2984,4.59999,2470.133,2019-12-31T16:38:19Z
2019-12-31T14:40:51Z,42.805,6.029,13.2987,4.60001,2470.11,2019-12-31T16:41:22Z
2019-12-31T14:43:54Z,42.805,6.029,13.2990,4.59997,2470.147,2019-12-31T16:44:25Z
2019-12-31T14:46:57Z,42.805,6.029,13.2984,4.60003,2470.124,2019-12-31T16:47:29Z
2019-12-31T14:50:01Z,42.805,6.029,13.2992,4.60024,2470.124,2019-12-31T16:50:32Z
2019-12-31T14:53:04Z,42.805,6.029,13.2995,4.59996,2470.11,2019-12-31T16:53:35Z
2019-12-31T14:56:07Z,42.805,6.029,13.2981,4.59995,2470.124,2019-12-31T16:56:38Z
2019-12-31T14:59:10Z,42.805,6.029,13.2984,4.59991,2470.11,2019-12-31T16:59:42Z
2019-12-31T15:02:13Z,42.805,6.029,13.2986,4.59994,2470.133,2019-12-31T17:02:45Z